Location: Novokuznetsk
(53.7500°N, 87.1000°E)
Time: 13:52:28
(UTC+06:00)

ISS - Pass Details

Date: 21 July 2018
Orbit: 402 x 408 km, 51.6° (Epoch: 23 July)

Event Time Altitude Azimuth Distance (km) Brightness Sun altitude
Rises 00:44:30 0° 269° (W) 2,328 -0.1 -15.5°
Reaches altitude 10° 00:46:35 10° 265° (W) 1,468 -1.1 -15.4°
Maximum altitude 00:49:50 58° 186° (S) 480 -3.9 -15.4°
Drops below altitude 10° 00:53:05 10° 106° (ESE) 1,470 -1.1 -15.3°
Sets 00:55:11 0° 102° (ESE) 2,331 0.0 -15.3°
